Location: Cheching
(60.0667°N, 164.2167°W)
Time: 10:50:49
(UTC+00:00)

AIST 2D - Visible Passes

Search period start: 17 January 2021 00:00
Search period end: 27 January 2021 00:00
Orbit: 452 x 466 km, 97.1° (Epoch: 17 January)

Date Brightness Start Highest point End Pass type
(mag) Time Alt. Az. Time Alt. Az. Time Alt. Az.
17 Jan ? 18:20:00 10° E 18:21:49 14° NE 18:23:40 10° NNE visible
20 Jan ? 18:16:47 10° E 18:18:28 13° NE 18:20:09 10° NNE visible
23 Jan ? 18:13:34 10° ENE 18:15:05 12° NE 18:16:36 10° NNE visible
26 Jan ? 18:10:21 10° ENE 18:11:40 12° NE 18:13:00 10° NNE visible
